Regional Weather Roundup
Issued by NWS Green Bay, WI

Home | Current Version | Previous Version | Graphics & Text | Print | Product List | Glossary Off
Versions: 1 2 3 4 5 6 7 8 9 10 11 12 13 14 15 16 17 18 19 20 21 22 23 24 25 26 27 28 29 30 31 32 33 34 35 36 37 38 39 40 41 42 43 44 45 46 47 48 49 50

000
ASUS43 KGRB 272110
RWRGRB

NORTH-CENTRAL AND NORTHEAST WISCONSIN REGIONAL WEATHER ROUNDUP
NATIONAL WEATHER SERVICE GREEN BAY WI
400 PM CDT FRI MAR 27 2015

WIZ005-009-010>012-018-019-272200-
NORTH CENTRAL WISCONSIN

CITY           SKY/WX    TMP DP  RH WIND       PRES   REMARKS
IRONWOOD       SUNNY     25  10  54 CALM      30.15F
MANITOWISH WTR SUNNY     30   5  35 NE7       30.11F
ARBOR VITAE    SUNNY     29   2  31 NW6       30.11F
EAGLE RIVER    SUNNY     28  -5  24 NW7       30.11S
LAND O LAKES   SUNNY     28  -4  25 NW7       30.12S
RHINELANDER    SUNNY     28  -1  28 VRB3      30.11F
PHILLIPS       SUNNY     32   5  32 NW5       30.11F
ANTIGO         SUNNY     28   3  35 CALM      30.12F
TOMAHAWK       SUNNY     31   1  28 CALM      30.13S
MERRILL        SUNNY     30   1  29 N7        30.13S
$$

WIZ013-073-272200-
NORTHEAST WISCONSIN

CITY           SKY/WX    TMP DP  RH WIND       PRES   REMARKS
IRON MOUNTAIN  SUNNY     28   0  29 N10       30.13F
MARINETTE      SUNNY     25   9  50 E12       30.19S
OCONTO         SUNNY     26  11  52 E10       30.19S
$$

WIZ017-030-035>037-045-272200-
CENTRAL WISCONSIN

CITY           SKY/WX    TMP DP  RH WIND       PRES   REMARKS
MEDFORD        SUNNY     29   5  35 CALM      30.12F
WAUSAU         SUNNY     30   4  33 VRB5      30.13F
MOSINEE        SUNNY     30   7  37 N8        30.15F
MARSHFIELD     SUNNY     32   7  35 N6        30.15F
WISC RAPIDS    SUNNY     32   4  30 N7        30.18F
STEVENS POINT  SUNNY     29   3  33 NE6       30.15F
WAUPACA        SUNNY     34  -1  23 CALM      30.17F
SHAWANO        SUNNY     33   2  27 E6        30.16F
CLINTONVILLE   SUNNY     32   0  25 N7        30.16S
$$

WIZ038-039-048-051-272200-
FOX VALLEY

CITY           SKY/WX    TMP DP  RH WIND       PRES   REMARKS
NWS GREEN BAY  SUNNY     29   8  41 MISG      30.18F
APPLETON       SUNNY     28   1  31 N7        30.17F
OSHKOSH        SUNNY     28   7  41 E8        30.17S
FOND DU LAC    SUNNY     30   6  36 N12G18    30.18S
$$

WIZ022-050-052-272200-
EAST CENTRAL WISCONSIN

CITY           SKY/WX    TMP DP  RH WIND       PRES   REMARKS
STURGEON BAY   SUNNY     25   7  46 N9        30.20F
MANITOWOC      SUNNY     26   7  44 N13G31    30.18F
SHEBOYGAN      SUNNY     28  10  46 NE10      30.17F
$$

LMZ563-521-522-541>543-272200-
LAKESHORE

STATION/POSITION TIME  TEMP    WIND        PRES    VSBY  WAVE
                       AIR SEA DIR/SP/G                  HT/PER
                 (UTC) (F)     (DEG/KT/KT) (MB)    (MI)  (FT/S)
SHEBOYGAN LKSHOR 2100   23      20/ 17/ 19 1023.4F
KEWAUNEE LKSHORE 2100   25      10/  8/ 14 1021.4F
NORTHPORT PIER   2100   22     360/ 15/ 17 1022.7S
SISTER BAY LKSHO 2000   28      20/ 13/ 18   N/A
STURGEON BAY CG  2100   26      30/  7     1023.2      6   2
CHAMBERS ISLAND  2100   21      60/  8/ 11 1022.7F
MENOMINEE LKSHOR 2100   23      80/ 10     1023.0S
$$



USA.gov is the U.S. government's official web portal to all federal, state and local government web resources and services.